DH0GMA Weather Reports


Display with metric or nautical units.
time (UTC)temp
F
wind
direction
speed
MPH
gust
MPH
rain 1hr
in
rain 24hr
in
rain mn
in
humidity
%
barometer
mb
20260504100504 69 60 1.0 4.0 0.00 0.00 0.00 51 1012.6
20260504081505 65 148 0.0 3.0 0.00 0.00 0.00 57 1013.6
20260504080505 66 147 0.0 3.0 0.00 0.00 0.00 56 1013.8
20260504050504 50 9 0.0 0.0 0.00 0.00 0.00 80 1013.9
20260504045504 50 9 0.0 0.0 0.00 0.00 0.00 80 1014.1
20260504044504 49 9 0.0 0.0 0.00 0.00 0.00 79 1013.9
20260504043504 49 9 0.0 0.0 0.00 0.00 0.00 79 1013.9
20260504042503 49 9 0.0 0.0 0.00 0.00 0.00 79 1013.9
20260504041503 49 9 0.0 0.0 0.00 0.00 0.00 78 1014.0
20260504040505 50 9 0.0 0.0 0.00 0.00 0.00 78 1014.0
20260504035505 50 9 0.0 0.0 0.00 0.00 0.00 77 1013.9
20260504034505 50 9 0.0 0.0 0.00 0.00 0.00 76 1014.0
20260504033505 51 9 0.0 0.0 0.00 0.00 0.00 75 1014.0
20260504032505 51 9 0.0 0.0 0.00 0.00 0.00 75 1013.9
20260504031505 52 9 0.0 0.0 0.00 0.00 0.00 74 1014.0
20260504030505 52 9 0.0 0.0 0.00 0.00 0.00 74 1014.1
20260504025504 52 9 0.0 0.0 0.00 0.00 0.00 74 1014.2
20260504024504 53 9 0.0 0.0 0.00 0.00 0.00 73 1014.1
20260504023504 53 9 0.0 0.0 0.00 0.00 0.00 73 1014.2
20260504022504 53 9 0.0 0.0 0.00 0.00 0.00 73 1014.1
20260504021504 53 9 0.0 0.0 0.00 0.00 0.00 72 1014.1
20260504020504 53 9 0.0 0.0 0.00 0.00 0.00 71 1014.0
20260504015504 53 9 0.0 0.0 0.00 0.00 0.00 70 1014.1
20260504014504 53 9 0.0 0.0 0.00 0.00 0.00 70 1014.0
20260504013504 53 9 0.0 0.0 0.00 0.00 0.00 70 1014.0
20260504012505 53 9 0.0 0.0 0.00 0.00 0.00 69 1014.2
20260504011504 53 9 0.0 0.0 0.00 0.00 0.00 69 1014.0
20260504010504 53 9 0.0 0.0 0.00 0.00 0.00 69 1014.1
20260504005504 53 9 0.0 2.0 0.00 0.00 0.00 68 1014.0
20260504004504 53 9 0.0 1.0 0.00 0.00 0.00 68 1014.2
20260504003504 54 295 0.0 0.0 0.00 0.00 0.00 68 1014.3
20260504002504 54 294 0.0 1.0 0.00 0.00 0.00 68 1014.4
20260504001504 54 293 0.0 0.0 0.00 0.00 0.00 68 1014.4
20260504000503 54 293 0.0 0.0 0.00 0.00 0.00 67 1014.3
20260503235504 54 293 0.0 0.0 0.00 0.00 0.00 67 1014.5
20260503234503 54 293 0.0 0.0 0.00 0.00 0.00 66 1014.5
20260503233504 54 293 0.0 0.0 0.00 0.00 0.00 66 1014.5
20260503232504 54 293 0.0 0.0 0.00 0.00 0.00 66 1014.5
20260503231504 55 293 0.0 0.0 0.00 0.00 0.00 64 1014.7
20260503230504 55 293 0.0 0.0 0.00 0.00 0.00 64 1014.7
20260503225504 56 293 0.0 0.0 0.00 0.00 0.00 63 1014.7
20260503224504 56 293 0.0 0.0 0.00 0.00 0.00 63 1014.8
20260503223504 56 293 0.0 0.0 0.00 0.00 0.00 62 1014.7
20260503222504 57 293 0.0 0.0 0.00 0.00 0.00 61 1014.6
20260503221503 57 293 0.0 0.0 0.00 0.00 0.00 60 1014.4
20260503220503 58 293 0.0 1.0 0.00 0.00 0.00 59 1014.3
20260503215503 58 293 0.0 1.0 0.00 0.00 0.00 59 1014.2
20260503214503 58 293 0.0 0.0 0.00 0.00 0.00 58 1014.3
20260503213505 58 293 0.0 1.0 0.00 0.00 0.00 57 1014.2
20260503212505 59 293 0.0 0.0 0.00 0.00 0.00 56 1014.0
20260503211505 59 293 0.0 1.0 0.00 0.00 0.00 55 1014.0
20260503210505 60 293 0.0 1.0 0.00 0.00 0.00 54 1013.9
20260503205504 61 293 0.0 1.0 0.00 0.00 0.00 53 1013.7
20260503204504 61 293 0.0 1.0 0.00 0.00 0.00 52 1013.5
20260503203504 62 293 0.0 1.0 0.00 0.00 0.00 52 1013.4
20260503202504 62 293 1.0 1.0 0.00 0.00 0.00 51 1013.2
20260503201504 63 293 1.0 2.0 0.00 0.00 0.00 50 1013.1
20260503200504 63 314 0.0 3.0 0.00 0.00 0.00 50 1012.9
20260503195504 64 313 1.0 7.0 0.00 0.00 0.00 52 1012.8
20260503194504 65 293 2.0 5.0 0.00 0.00 0.00 57 1012.8
20260503193504 65 314 0.0 1.0 0.00 0.00 0.00 57 1012.4
20260503192504 66 314 1.0 3.0 0.00 0.00 0.00 55 1012.3
20260503191503 66 300 0.0 1.0 0.00 0.00 0.00 54 1012.2
20260503190503 67 295 0.0 1.0 0.00 0.00 0.00 53 1012.0
20260503185503 67 285 0.0 3.0 0.00 0.00 0.00 52 1011.8
20260503184503 68 281 0.0 3.0 0.00 0.00 0.00 52 1011.6
20260503183503 68 353 2.0 4.0 0.00 0.00 0.00 51 1011.5
20260503182505 69 320 1.0 2.0 0.00 0.00 0.00 50 1011.4
20260503181505 69 310 0.0 2.0 0.00 0.00 0.00 49 1011.4
20260503180505 69 340 0.0 3.0 0.00 0.00 0.00 48 1011.2
20260503175505 70 335 0.0 3.0 0.00 0.00 0.00 47 1011.2
20260503174505 71 346 1.0 3.0 0.00 0.00 0.00 46 1011.4
20260503173504 71 346 1.0 3.0 0.00 0.00 0.00 45 1011.4
20260503172504 72 334 2.0 3.0 0.00 0.00 0.00 43 1011.6
20260503171504 72 218 3.0 6.0 0.00 0.00 0.00 40 1011.4
20260503170504 73 164 2.0 5.0 0.00 0.00 0.00 34 1011.2
20260503150505 80 237 1.0 4.0 0.00 0.00 0.00 30 1011.2
20260503130503 75 269 1.0 3.0 0.00 0.00 0.00 38 1012.3
20260503110503 75 45 1.0 5.0 0.00 0.00 0.00 35 1013.3